Location: Hermaringen
(48.5952°N, 10.2585°E)
Time: 17:26:16
(UTC+00:00)

Injun/Solrad 3 - Pass Details

Date: 23 February 2026
Orbit: 872 x 984 km, 66.8° (Epoch: 6 March)

Event Time Altitude Azimuth Distance (km) Brightness Sun altitude
Rises 19:10:33 0° 317° (NW) 3,589 11.8 -23.3°
Reaches altitude 10° 19:13:24 10° 306° (NW) 2,660 11.2 -23.8°
Maximum altitude 19:18:29 27° 251° (WSW) 1,735 9.8 -24.6°
Drops below altitude 10° 19:23:39 10° 196° (SSW) 2,703 10.3 -25.5°
Sets 19:26:36 0° 185° (S) 3,658 10.9 -25.9°
